This demonstration page uses our WeatherBlox Daily Observations layout. Learn more.

Left ArrowRight Arrow

Hourly Observations for July 3, 2018

Temp ( °F °C ) Dew Point ( °F °C ) Humidity (%) Winds ( mph kmh ) Pressure ( in mb ) Visibility ( mi km ) Precip ( " mm )
12:53 am 00:53 Clear 83 28.3 37 2.8 19 19 N 7 11 29.75 1007 10 16 0.00 0.00
1:53 am 01:53 Clear 81 27.2 34 1.1 18 18 NNW 6 9 29.75 1007 10 16 0.00 0.00
2:53 am 02:53 Clear 79 26.1 32 0 18 18 NNW 12 19 29.75 1007 10 16 0.00 0.00
3:53 am 03:53 Clear 77 25 32 0 19 19 N 14 22 29.75 1008 10 16 0.00 0.00
4:53 am 04:53 Clear 75 23.9 33 0.6 22 22 N 13 20 29.78 1008 10 16 0.00 0.00
5:53 am 05:53 Sunny 74 23.3 34 1.1 23 23 N 15 24 29.79 1009 10 16 0.00 0.00
6:53 am 06:53 Sunny 74 23.3 35 1.7 24 24 N 16 26 29.80 1009 10 16 0.00 0.00
7:53 am 07:53 Sunny 76 24.4 33 0.6 21 21 N 14 22 29.81 1010 10 16 0.00 0.00
8:53 am 08:53 Sunny 78 25.6 32 0 19 19 N 20 31 29.82 1010 10 16 0.00 0.00
9:53 am 09:53 Sunny 81 27.2 32 0 17 17 N 25 41 29.80 1009 10 16 0.00 0.00
10:53 am 10:53 Sunny 85 29.4 32 0 15 15 N 17 28 29.80 1009 10 16 0.00 0.00
11:53 am 11:53 Sunny 87 30.6 29 -1.7 12 12 N 22 35 29.78 1009 10 16 0.00 0.00
12:53 pm 12:53 Sunny 90 32.2 30 -1.1 12 12 NNE 21 33 29.77 1008 10 16 0.00 0.00
1:53 pm 13:53 Sunny 91 32.8 32 0 12 12 NNW 13 20 29.75 1008 10 16 0.00 0.00
2:53 pm 14:53 Sunny 93 33.9 32 0 11 11 NNW 8 13 29.74 1007 10 16 0.00 0.00
3:53 pm 15:53 Sunny 94 34.4 36 2.2 13 13 VRB 5 7 29.72 1007 10 16 0.00 0.00
4:53 pm 16:53 Sunny 94 34.4 38 3.3 14 14 WNW 7 11 29.70 1006 10 16 0.00 0.00
5:53 pm 17:53 Sunny 95 35 41 5 15 15 WNW 5 7 29.69 1005 10 16 0.00 0.00
6:53 pm 18:53 Sunny 95 35 41 5 15 15 SSE 10 17 29.68 1005 10 16 0.00 0.00
7:53 pm 19:53 Sunny 90 32.2 54 12.2 29 29 SSE 13 20 29.69 1005 10 16 0.00 0.00
8:53 pm 20:53 Clear 85 29.4 51 10.6 31 31 S 12 19 29.70 1006 10 16 0.00 0.00
9:53 pm 21:53 Clear 82 27.8 51 10.6 34 34 SSE 3 6 29.72 1006 10 16 0.00 0.00
10:53 pm 22:53 Clear 78 25.6 52 11.1 40 40 NNE 5 7 29.74 1007 10 16 0.00 0.00
11:53 pm 23:53 Clear 77 25 54 12.2 45 45 NE 3 6 29.75 1007 10 16 0.00 0.00

Powered by AerisWeather